| time (UTC) | temp F | wind direction | speed knots | gust knots | rain 1hr in | rain 24hr in | rain mn in | humidity % | barometer mb |
| 20260505010002 | 72 | 220 | 2.6 | 8.7 | 0.00 | 0.00 | 0.00 | 52 | 992.8 |
| 20260505000003 | 75 | 214 | 3.5 | 8.7 | 0.00 | 0.00 | 0.00 | 47 | 992.4 |
| 20260504234504 | 75 | 222 | 7.8 | 15.6 | 0.00 | 0.00 | 0.00 | 48 | 992.5 |
| 20260504233004 | 76 | 208 | 9.6 | 15.6 | 0.00 | 0.00 | 0.00 | 47 | 992.5 |
| 20260504230006 | 76 | 214 | 9.6 | 16.5 | 0.00 | 0.00 | 0.00 | 47 | 992.5 |
| 20260504224507 | 75 | 238 | 9.6 | 20.9 | 0.00 | 0.00 | 0.00 | 46 | 992.7 |
| 20260504221501 | 77 | 207 | 11.3 | 17.4 | 0.00 | 0.00 | 0.00 | 43 | 992.7 |
| 20260504220003 | 77 | 210 | 9.6 | 18.2 | 0.00 | 0.00 | 0.00 | 47 | 992.7 |
| 20260504214501 | 77 | 228 | 14.8 | 22.6 | 0.00 | 0.00 | 0.00 | 45 | 992.6 |
| 20260504213009 | 77 | 218 | 11.3 | 19.1 | 0.00 | 0.00 | 0.00 | 44 | 992.9 |
| 20260504210002 | 76 | 215 | 12.2 | 20.0 | 0.00 | 0.00 | 0.00 | 44 | 993.1 |
| 20260504193003 | 76 | 213 | 12.2 | 19.1 | 0.00 | 0.00 | 0.00 | 48 | 994.2 |
| 20260504180007 | 75 | 222 | 8.7 | 17.4 | 0.00 | 0.00 | 0.00 | 57 | 995.0 |
| 20260504173002 | 75 | 199 | 15.6 | 19.1 | 0.00 | 0.00 | 0.00 | 54 | 995.5 |
| 20260504050009 | 57 | 168 | 0.0 | 6.1 | 0.00 | 0.00 | 0.00 | 70 | 997.4 |
| 20260504044515 | 57 | 168 | 0.0 | 4.3 | 0.00 | 0.00 | 0.00 | 67 | 997.5 |
| 20260504043009 | 58 | 220 | 1.7 | 7.0 | 0.00 | 0.00 | 0.00 | 66 | 997.7 |
| 20260504041508 | 58 | 195 | 0.9 | 10.4 | 0.00 | 0.00 | 0.00 | 65 | 997.7 |
| 20260504040011 | 58 | 212 | 6.1 | 11.3 | 0.00 | 0.00 | 0.00 | 65 | 997.8 |
| 20260504034512 | 58 | 331 | 1.7 | 3.5 | 0.00 | 0.00 | 0.00 | 68 | 997.8 |
| 20260504033011 | 58 | 359 | 0.9 | 4.3 | 0.00 | 0.00 | 0.00 | 67 | 998.1 |
| 20260504030010 | 59 | 326 | 0.9 | 5.2 | 0.00 | 0.00 | 0.00 | 65 | 998.1 |
| 20260504024515 | 60 | 324 | 0.0 | 0.9 | 0.00 | 0.00 | 0.00 | 64 | 998.1 |
| 20260504023008 | 61 | 359 | 0.0 | 7.0 | 0.00 | 0.00 | 0.00 | 62 | 998.0 |
| 20260504021510 | 62 | 325 | 2.6 | 8.7 | 0.00 | 0.00 | 0.00 | 58 | 998.2 |
| 20260504020015 | 62 | 286 | 1.7 | 4.3 | 0.00 | 0.00 | 0.00 | 57 | 997.9 |
| 20260504014511 | 63 | 293 | 1.7 | 6.1 | 0.00 | 0.00 | 0.00 | 56 | 997.7 |
| 20260504013010 | 63 | 304 | 2.6 | 6.1 | 0.00 | 0.00 | 0.00 | 54 | 997.7 |